FW3334 Weather Reports


Display with metric or nautical units.
time (UTC)temp
F
wind
direction
speed
MPH
gust
MPH
rain 1hr
in
rain 24hr
in
rain mn
in
humidity
%
barometer
mb
20260510174745 74 86 7.0 14.0 0.00 0.00 0.00 69 1006.0
20260510174246 74 106 7.0 14.0 0.00 0.00 0.00 68 1005.9
20260510173743 74 47 8.0 12.0 0.00 0.00 0.00 67 1005.9
20260510173244 74 44 8.0 14.0 0.00 0.00 0.00 68 1005.9
20260510172743 74 51 7.0 14.0 0.00 0.00 0.00 70 1005.8
20260510172244 74 56 7.0 11.0 0.00 0.00 0.00 71 1005.8
20260510171744 74 77 6.0 11.0 0.00 0.00 0.00 70 1005.8
20260510171243 75 59 6.0 10.0 0.00 0.00 0.00 70 1005.8
20260510171013 74 48 7.0 12.0 0.00 0.00 0.00 70 1005.8
20260510170236 74 29 7.0 12.0 0.00 0.00 0.00 69 1005.9
20260510165729 75 72 6.0 13.0 0.00 0.00 0.00 69 1006.0
20260510165223 75 100 6.0 13.0 0.00 0.00 0.00 70 1006.0
20260510164717 74 110 6.0 15.0 0.00 0.00 0.00 71 1006.1
20260510164210 74 55 7.0 15.0 0.00 0.00 0.00 71 1006.1
20260510163705 73 51 7.0 12.0 0.00 0.00 0.00 70 1006.2
20260510163159 73 78 7.0 13.0 0.00 0.00 0.00 70 1006.1
20260510162653 73 108 6.0 13.0 0.00 0.00 0.00 71 1006.1
20260510162147 74 66 6.0 12.0 0.00 0.00 0.00 69 1006.2
20260510161641 74 69 6.0 11.0 0.00 0.00 0.00 69 1006.1
20260510161135 73 106 5.0 10.0 0.00 0.00 0.00 72 1006.1
20260510160628 73 54 5.0 10.0 0.00 0.00 0.00 71 1006.1
20260510160123 73 33 5.0 10.0 0.00 0.00 0.00 71 1006.1
20260510155617 72 81 4.0 8.0 0.00 0.00 0.00 73 1006.1
20260510155111 73 68 4.0 8.0 0.00 0.00 0.00 72 1006.1
20260510154605 72 82 4.0 9.0 0.00 0.00 0.00 73 1006.1
20260510154058 72 81 3.0 9.0 0.00 0.00 0.00 71 1005.9
20260510153553 72 67 4.0 7.0 0.00 0.00 0.00 71 1005.8
20260510153046 72 65 3.0 7.0 0.00 0.00 0.00 70 1005.8
20260510152540 71 32 2.0 8.0 0.00 0.00 0.00 71 1005.8
20260510152034 71 25 1.0 4.0 0.00 0.00 0.00 75 1005.8
20260510151529 71 105 1.0 3.0 0.00 0.00 0.00 74 1005.9
20260510151022 70 56 2.0 4.0 0.00 0.00 0.00 75 1005.8
20260510150516 70 46 1.0 4.0 0.00 0.00 0.00 75 1005.7
20260510150011 69 91 1.0 5.0 0.00 0.00 0.00 74 1005.7
20260510145736 69 100 2.0 5.0 0.00 0.00 0.00 74 1005.7
20260510144959 69 92 1.0 4.0 0.00 0.00 0.00 73 1005.7
20260510144453 70 26 1.0 3.0 0.00 0.00 0.00 72 1005.7
20260510143947 70 239 0.0 2.0 0.00 0.00 0.00 71 1005.6
20260510143441 69 239 0.0 3.0 0.00 0.00 0.00 72 1005.5
20260510142934 69 239 0.0 3.0 0.00 0.00 0.00 73 1005.3
20260510142428 69 245 0.0 2.0 0.00 0.00 0.00 73 1005.2
20260510141922 69 223 0.0 2.0 0.00 0.00 0.00 73 1005.1
20260510141418 69 98 0.0 1.0 0.00 0.00 0.00 74 1005.1
20260510140911 68 97 0.0 1.0 0.00 0.00 0.00 72 1005.1
20260510140405 67 97 0.0 1.0 0.00 0.00 0.00 72 1005.1
20260510135859 67 97 0.0 1.0 0.00 0.00 0.00 72 1005.0
20260510135353 67 97 0.0 1.0 0.00 0.00 0.00 73 1004.8
20260510135117 66 97 0.0 1.0 0.00 0.00 0.00 74 1004.8
20260510134344 65 97 0.0 1.0 0.00 0.00 0.00 74 1004.8
20260510134113 65 97 0.0 1.0 0.00 0.00 0.00 75 1004.7
20260510133612 64 97 0.0 1.0 0.00 0.00 0.00 76 1004.6
20260510132839 63 97 0.0 1.0 0.00 0.00 0.00 78 1004.6
20260510132339 63 97 0.0 2.0 0.00 0.00 0.00 77 1004.7
20260510131838 62 97 0.0 2.0 0.00 0.00 0.00 78 1004.7
20260510131336 62 97 0.0 2.0 0.00 0.00 0.00 79 1004.6
20260510130835 62 97 0.0 2.0 0.00 0.00 0.00 79 1004.5
20260510130335 61 97 0.0 0.0 0.00 0.00 0.00 79 1004.6
20260510125834 61 97 0.0 0.0 0.00 0.00 0.00 80 1004.5
20260510125333 60 97 0.0 0.0 0.00 0.00 0.00 80 1004.4
20260510124832 60 97 0.0 0.0 0.00 0.00 0.00 80 1004.5
20260510124331 60 97 0.0 0.0 0.00 0.00 0.00 80 1004.5
20260510123830 60 97 0.0 0.0 0.00 0.00 0.00 81 1004.6
20260510123331 60 97 0.0 0.0 0.00 0.00 0.00 82 1004.7
20260510122829 60 97 0.0 0.0 0.00 0.00 0.00 82 1004.7
20260510122328 60 97 0.0 1.0 0.00 0.00 0.00 82 1004.6
20260510121823 60 97 0.0 2.0 0.00 0.00 0.00 82 1004.6
20260510121320 60 97 0.0 2.0 0.00 0.00 0.00 81 1004.4
20260510120819 60 98 0.0 1.0 0.00 0.00 0.00 79 1004.3
20260510120319 61 99 0.0 1.0 0.00 0.00 0.00 79 1004.4
20260510115818 61 98 0.0 1.0 0.00 0.00 0.00 77 1004.3
20260510115319 61 98 0.0 0.0 0.00 0.00 0.00 78 1004.2
20260510114819 62 98 0.0 2.0 0.00 0.00 0.00 77 1004.1
20260510114319 62 98 0.0 2.0 0.00 0.00 0.00 75 1003.8
20260510113819 62 15 0.0 1.0 0.00 0.00 0.00 74 1003.9
20260510113318 62 15 0.0 1.0 0.00 0.00 0.00 74 1004.0
20260510112820 62 15 0.0 1.0 0.00 0.00 0.00 74 1004.0
20260510112816 62 15 1.0 3.0 0.00 0.00 0.00 74 1003.9
20260510111815 62 15 1.0 4.0 0.00 0.00 0.00 74 1003.9
20260510111314 62 12 1.0 4.0 0.00 0.00 0.00 74 1003.8
20260510110815 61 337 1.0 3.0 0.00 0.00 0.00 75 1003.8
20260510110314 61 23 2.0 5.0 0.00 0.00 0.00 75 1003.7
20260510105814 61 359 2.0 5.0 0.00 0.00 0.00 75 1003.6
20260510105314 61 341 1.0 4.0 0.00 0.00 0.00 76 1003.7
20260510104814 60 6 2.0 4.0 0.00 0.00 0.00 77 1003.5
20260510104315 60 28 1.0 3.0 0.00 0.00 0.00 78 1003.3
20260510103810 60 18 0.0 2.0 0.00 0.00 0.00 79 1003.2
20260510103310 59 35 0.0 1.0 0.00 0.00 0.00 80 1003.1
20260510102811 59 35 0.0 1.0 0.00 0.00 0.00 81 1003.1
20260510102542 58 35 1.0 2.0 0.00 0.00 0.00 83 1003.0
20260510101811 59 35 0.0 2.0 0.00 0.00 0.00 80 1003.0
20260510101312 60 35 0.0 2.0 0.00 0.00 0.00 78 1002.9
20260510100810 61 343 0.0 2.0 0.00 0.00 0.00 76 1002.6
20260510100541 62 308 0.0 1.0 0.00 0.00 0.00 75 1002.6
20260510095810 63 308 0.0 1.0 0.00 0.00 0.00 72 1002.6
20260510095311 63 308 0.0 1.0 0.00 0.00 0.00 71 1002.5
20260510094809 64 302 0.0 0.0 0.00 0.00 0.00 67 1002.5
20260510094304 64 302 0.0 1.0 0.00 0.00 0.00 67 1002.3
20260510093757 65 302 0.0 1.0 0.00 0.00 0.00 65 1002.3
20260510093523 65 302 0.0 2.0 0.00 0.00 0.00 64 1002.3
20260510092746 66 302 0.0 2.0 0.00 0.00 0.00 64 1002.4
20260510092240 66 291 0.0 3.0 0.00 0.00 0.00 63 1002.4
20260510091735 66 352 0.0 3.0 0.00 0.00 0.00 63 1002.3
20260510091227 66 272 1.0 5.0 0.00 0.00 0.00 63 1002.3
20260510090722 66 316 1.0 5.0 0.00 0.00 0.00 63 1002.2
20260510090215 66 319 1.0 3.0 0.00 0.00 0.00 63 1002.1
20260510085710 66 311 1.0 3.0 0.00 0.00 0.00 63 1002.1
20260510085203 66 297 1.0 3.0 0.00 0.00 0.00 63 1002.1
20260510084658 67 302 1.0 4.0 0.00 0.00 0.00 63 1002.0
20260510084152 66 338 1.0 4.0 0.00 0.00 0.00 63 1002.0
20260510083917 66 296 1.0 5.0 0.00 0.00 0.00 64 1001.9
20260510083411 66 305 0.0 5.0 0.00 0.00 0.00 65 1001.7
20260510082634 66 294 0.0 2.0 0.00 0.00 0.00 65 1001.7
20260510082128 66 301 0.0 2.0 0.00 0.00 0.00 65 1001.7
20260510081621 65 301 0.0 1.0 0.00 0.00 0.00 66 1001.5
20260510081116 66 301 0.0 2.0 0.00 0.00 0.00 66 1001.5
20260510080841 66 301 0.0 2.0 0.00 0.00 0.00 66 1001.4
20260510080104 66 305 0.0 3.0 0.00 0.00 0.00 66 1001.5
20260510075557 66 305 1.0 3.0 0.00 0.00 0.00 65 1001.5
20260510075052 66 311 1.0 3.0 0.00 0.00 0.00 65 1001.6
20260510074545 66 291 0.0 3.0 0.00 0.00 0.00 66 1001.6
20260510074039 66 302 0.0 3.0 0.00 0.00 0.00 65 1001.5
20260510073534 67 307 1.0 3.0 0.00 0.00 0.00 64 1001.5
20260510073028 66 303 0.0 3.0 0.00 0.00 0.00 65 1001.5
20260510072522 67 300 0.0 2.0 0.00 0.00 0.00 65 1001.6
20260510072015 67 300 0.0 2.0 0.00 0.00 0.00 64 1001.6
20260510071510 67 290 0.0 2.0 0.00 0.00 0.00 64 1001.6
20260510071004 67 302 0.0 5.0 0.00 0.00 0.00 64 1001.7
20260510070730 67 293 0.0 5.0 0.00 0.00 0.00 63 1001.7
20260510065952 67 323 1.0 4.0 0.00 0.00 0.00 63 1001.7
20260510065445 67 290 1.0 4.0 0.00 0.00 0.00 63 1001.7
20260510064940 67 327 1.0 4.0 0.00 0.00 0.00 63 1001.7
20260510064433 68 302 0.0 3.0 0.00 0.00 0.00 62 1001.7
20260510063928 68 289 0.0 3.0 0.00 0.00 0.00 62 1001.8
20260510063924 68 289 1.0 5.0 0.00 0.00 0.00 62 1001.7
20260510062916 68 302 1.0 4.0 0.00 0.00 0.00 61 1001.8
20260510062409 68 323 1.0 4.0 0.00 0.00 0.00 61 1001.8
20260510062134 68 321 1.0 4.0 0.00 0.00 0.00 61 1001.8
20260510061357 68 319 1.0 4.0 0.00 0.00 0.00 61 1001.9
20260510060852 68 301 1.0 4.0 0.00 0.00 0.00 62 1002.0
20260510060848 68 256 1.0 3.0 0.00 0.00 0.00 62 1002.0
20260510055840 68 307 1.0 4.0 0.00 0.00 0.00 61 1002.0
20260510055333 68 300 1.0 4.0 0.00 0.00 0.00 61 1002.1
20260510054828 68 278 1.0 4.0 0.00 0.00 0.00 62 1002.0
20260510054322 68 58 1.0 4.0 0.00 0.00 0.00 62 1001.9
20260510053816 67 264 1.0 4.0 0.00 0.00 0.00 62 1001.9
20260510053310 68 259 1.0 4.0 0.00 0.00 0.00 62 1001.8
20260510052803 68 264 1.0 5.0 0.00 0.00 0.00 62 1001.7
20260510052258 68 341 1.0 5.0 0.00 0.00 0.00 62 1001.8
20260510051751 68 259 1.0 4.0 0.00 0.00 0.00 62 1001.7
20260510051246 68 259 1.0 4.0 0.00 0.00 0.00 62 1001.8
20260510051011 68 271 1.0 3.0 0.00 0.00 0.00 61 1001.7
20260510050234 68 293 1.0 3.0 0.00 0.00 0.00 61 1001.6
20260510045728 68 286 0.0 3.0 0.00 0.00 0.00 60 1001.6
20260510045229 68 285 1.0 3.0 0.00 0.00 0.00 60 1001.5
20260510045000 68 300 0.0 3.0 0.00 0.00 0.00 60 1001.4
20260510044228 68 309 0.0 3.0 0.00 0.00 0.00 60 1001.4
20260510043728 68 257 0.0 2.0 0.00 0.00 0.00 60 1001.4
20260510043228 68 256 0.0 1.0 0.00 0.00 0.00 59 1001.5
20260510042728 68 256 0.0 3.0 0.00 0.00 0.00 58 1001.5
20260510042228 68 256 0.0 3.0 0.00 0.00 0.00 58 1001.4
20260510041728 68 250 0.0 3.0 0.00 0.00 0.00 59 1001.3
20260510041225 69 250 0.0 2.0 0.00 0.00 0.00 58 1001.3
20260510040725 69 250 0.0 3.0 0.00 0.00 0.00 58 1001.2
20260510040224 69 250 0.0 3.0 0.00 0.00 0.00 57 1001.3
20260510035956 69 250 0.0 3.0 0.00 0.00 0.00 57 1001.3
20260510035225 69 248 0.0 4.0 0.00 0.00 0.00 57 1001.4
20260510034724 69 248 0.0 4.0 0.00 0.00 0.00 56 1001.3
20260510034224 68 248 0.0 3.0 0.00 0.00 0.00 57 1001.3
20260510033724 68 242 0.0 2.0 0.00 0.00 0.00 57 1001.2
20260510033224 68 242 0.0 2.0 0.00 0.00 0.00 58 1001.2
20260510032723 68 242 0.0 1.0 0.00 0.00 0.00 58 1001.1
20260510032222 68 242 0.0 1.0 0.00 0.00 0.00 57 1001.2
20260510031723 68 242 0.0 1.0 0.00 0.00 0.00 57 1001.1
20260510031223 68 240 0.0 0.0 0.00 0.00 0.00 57 1001.0
20260510030722 69 240 0.0 2.0 0.00 0.00 0.00 57 1000.9
20260510030220 69 240 0.0 2.0 0.00 0.00 0.00 55 1000.9
20260510025721 69 240 0.0 2.0 0.00 0.00 0.00 55 1001.0
20260510025220 69 240 0.0 2.0 0.00 0.00 0.00 56 1000.9
20260510024721 69 240 0.0 2.0 0.00 0.00 0.00 57 1000.9
20260510024220 70 240 0.0 1.0 0.00 0.00 0.00 54 1000.7
20260510023721 70 240 0.0 1.0 0.00 0.00 0.00 55 1000.6
20260510023451 70 240 0.0 1.0 0.00 0.00 0.00 55 1000.6
20260510022720 70 240 0.0 3.0 0.00 0.00 0.00 54 1000.5
20260510022220 70 240 0.0 3.0 0.00 0.00 0.00 56 1000.5
20260510021718 70 236 0.0 1.0 0.00 0.00 0.00 56 1000.4
20260510021449 70 236 0.0 2.0 0.00 0.00 0.00 57 1000.4
20260510020713 70 236 0.0 2.0 0.00 0.00 0.00 56 1000.3
20260510020206 70 236 0.0 0.0 0.00 0.00 0.00 58 1000.1
20260510015700 70 236 0.0 0.0 0.00 0.00 0.00 58 1000.0
20260510015154 71 236 0.0 0.0 0.00 0.00 0.00 58 1000.0
20260510014647 71 236 0.0 1.0 0.00 0.00 0.00 57 999.9
20260510014142 72 236 0.0 1.0 0.00 0.00 0.00 56 999.9
20260510013635 72 236 0.0 1.0 0.00 0.00 0.00 55 999.9
20260510013400 72 236 0.0 1.0 0.00 0.00 0.00 55 999.8
20260510012623 73 236 0.0 1.0 0.00 0.00 0.00 57 999.8
20260510012118 73 236 0.0 1.0 0.00 0.00 0.00 55 999.8
20260510011611 73 236 0.0 1.0 0.00 0.00 0.00 54 999.7
20260510011105 74 236 0.0 1.0 0.00 0.00 0.00 55 999.6
20260510010559 74 236 0.0 1.0 0.00 0.00 0.00 55 999.5
20260510010325 74 236 0.0 1.0 0.00 0.00 0.00 55 999.5
20260510005548 75 236 0.0 1.0 0.00 0.00 0.00 56 999.6
20260510005041 76 236 0.0 1.0 0.00 0.00 0.00 54 999.5
20260510004536 76 236 0.0 0.0 0.00 0.00 0.00 55 999.5
20260510004030 77 236 0.0 0.0 0.00 0.00 0.00 53 999.4
20260510003524 78 236 0.0 1.0 0.00 0.00 0.00 51 999.2
20260510003018 79 236 0.0 1.0 0.00 0.00 0.00 50 999.1
20260510002511 80 236 0.0 1.0 0.00 0.00 0.00 48 999.0
20260510002006 80 236 0.0 3.0 0.00 0.00 0.00 48 999.1
20260510001459 80 236 1.0 4.0 0.00 0.00 0.00 45 999.0
20260510000953 81 221 0.0 4.0 0.00 0.00 0.00 46 999.0
20260510000718 81 224 1.0 4.0 0.00 0.00 0.00 45 999.0
20260509235942 82 253 1.0 4.0 0.00 0.00 0.00 43 999.1
20260509235436 82 259 1.0 4.0 0.00 0.00 0.00 41 999.0
20260509234930 83 250 0.0 3.0 0.00 0.00 0.00 42 998.9
20260509234424 83 245 0.0 2.0 0.00 0.00 0.00 40 998.9
20260509233924 83 239 1.0 4.0 0.00 0.00 0.00 41 998.9
20260509233424 83 239 2.0 6.0 0.00 0.00 0.00 41 998.9
20260509233155 83 253 1.0 6.0 0.00 0.00 0.00 39 998.9
20260509232424 83 249 2.0 7.0 0.00 0.00 0.00 39 998.9
20260509231924 83 255 3.0 7.0 0.00 0.00 0.00 38 999.0
20260509231424 83 262 3.0 8.0 0.00 0.00 0.00 37 999.0
20260509230923 83 233 2.0 8.0 0.00 0.00 0.00 37 999.0
20260509230425 83 231 2.0 7.0 0.00 0.00 0.00 38 999.0
20260509225924 83 221 2.0 5.0 0.00 0.00 0.00 37 999.0
20260509225424 83 244 1.0 5.0 0.00 0.00 0.00 38 998.9
20260509224924 85 233 1.0 4.0 0.00 0.00 0.00 37 998.9
20260509224655 85 246 2.0 7.0 0.00 0.00 0.00 38 998.8
20260509224154 84 254 2.0 7.0 0.00 0.00 0.00 37 998.8
20260509223424 84 287 3.0 7.0 0.00 0.00 0.00 38 998.8
20260509222924 84 231 3.0 7.0 0.00 0.00 0.00 38 998.7
20260509222421 83 247 3.0 7.0 0.00 0.00 0.00 39 998.7
20260509221922 84 278 3.0 7.0 0.00 0.00 0.00 36 998.7
20260509221421 84 245 3.0 6.0 0.00 0.00 0.00 36 998.7
20260509220922 85 274 2.0 8.0 0.00 0.00 0.00 36 998.8
20260509220422 84 345 2.0 8.0 0.00 0.00 0.00 40 998.6
20260509215921 85 228 2.0 6.0 0.00 0.00 0.00 38 998.6
20260509215422 83 317 2.0 6.0 0.00 0.00 0.00 38 998.7
20260509214921 83 139 2.0 9.0 0.00 0.00 0.00 36 998.6
20260509214650 84 200 2.0 9.0 0.00 0.00 0.00 37 998.7
20260509213919 84 234 3.0 7.0 0.00 0.00 0.00 38 998.8
20260509213420 84 231 3.0 7.0 0.00 0.00 0.00 40 998.8
20260509212919 84 232 2.0 7.0 0.00 0.00 0.00 37 998.8
20260509212651 85 279 2.0 8.0 0.00 0.00 0.00 36 998.9
20260509211919 85 277 2.0 8.0 0.00 0.00 0.00 36 998.9
20260509211420 85 263 2.0 6.0 0.00 0.00 0.00 36 998.9
20260509210918 86 226 2.0 6.0 0.00 0.00 0.00 37 999.1
20260509210418 87 359 2.0 10.0 0.00 0.00 0.00 37 999.1
20260509205918 87 354 1.0 10.0 0.00 0.00 0.00 36 999.1
20260509205417 87 222 2.0 7.0 0.00 0.00 0.00 37 999.1
20260509205148 87 19 2.0 7.0 0.00 0.00 0.00 34 999.2
20260509204417 88 352 1.0 7.0 0.00 0.00 0.00 34 999.1
20260509203916 87 282 1.0 5.0 0.00 0.00 0.00 37 999.2
20260509203415 85 243 1.0 4.0 0.00 0.00 0.00 44 999.2
20260509202916 85 86 0.0 2.0 0.00 0.00 0.00 36 999.3
20260509202415 86 147 1.0 4.0 0.00 0.00 0.00 36 999.3
20260509202146 87 19 2.0 5.0 0.00 0.00 0.00 34 999.3
20260509201415 87 251 1.0 5.0 0.00 0.00 0.00 36 999.3
20260509200916 84 293 1.0 5.0 0.00 0.00 0.00 40 999.4
20260509200416 82 236 2.0 5.0 0.00 0.00 0.00 39 999.4
20260509195915 82 155 3.0 6.0 0.00 0.00 0.00 39 999.5
20260509195416 82 151 3.0 7.0 0.00 0.00 0.00 42 999.6
20260509194915 83 213 3.0 8.0 0.00 0.00 0.00 41 999.5
20260509194416 83 219 3.0 9.0 0.00 0.00 0.00 42 999.6
20260509193916 84 139 3.0 9.0 0.00 0.00 0.00 41 999.6
20260509193415 83 238 3.0 7.0 0.00 0.00 0.00 42 999.7
20260509192923 83 246 2.0 7.0 0.00 0.00 0.00 45 999.8
20260509192916 83 277 3.0 7.0 0.00 0.00 0.00 48 999.7
20260509192416 83 181 2.0 6.0 0.00 0.00 0.00 44 999.7
20260509191416 83 268 2.0 7.0 0.00 0.00 0.00 47 999.8
20260509191147 83 69 2.0 5.0 0.00 0.00 0.00 49 999.8
20260509190415 83 255 3.0 8.0 0.00 0.00 0.00 50 999.8
20260509185916 82 243 4.0 9.0 0.00 0.00 0.00 48 999.9
20260509185415 84 218 3.0 9.0 0.00 0.00 0.00 47 999.9
20260509184915 81 235 4.0 9.0 0.00 0.00 0.00 54 1000.0
20260509184413 81 222 4.0 9.0 0.00 0.00 0.00 50 1000.0
20260509183913 82 221 3.0 9.0 0.00 0.00 0.00 50 1000.0
20260509183405 82 216 3.0 9.0 0.00 0.00 0.00 47 1000.0
20260509182906 82 180 3.0 9.0 0.00 0.00 0.00 48 1000.0
20260509182405 82 226 2.0 7.0 0.00 0.00 0.00 49 1000.0
20260509181905 83 249 2.0 7.0 0.00 0.00 0.00 47 1000.0
20260509181404 83 246 2.0 7.0 0.00 0.00 0.00 49 999.9
20260509180903 82 314 1.0 7.0 0.00 0.00 0.00 47 999.9
20260509180401 82 117 1.0 3.0 0.00 0.00 0.00 48 999.9
20260509175902 81 86 1.0 3.0 0.00 0.00 0.00 46 999.9
20260509175401 81 156 0.0 3.0 0.00 0.00 0.00 47 1000.0
20260509174859 81 151 1.0 4.0 0.00 0.00 0.00 52 1000.0